Location: Ostrava
(49.8330°N, 18.2830°E)
Time: 09:22:14
(UTC+02:00)

ISS - Pass Details

Date: 19 May 2021
Orbit: 417 x 422 km, 51.6° (Epoch: 13 June)

Event Time Altitude Azimuth Distance (km) Brightness Sun altitude
Rises 22:06:20 0° 261° (W) 2,361 0.5 -12.0°
Reaches altitude 10° 22:08:26 10° 263° (W) 1,499 -0.5 -12.2°
Maximum altitude 22:11:48 73° 349° (NNW) 443 -3.5 -12.6°
Drops below altitude 10° 22:15:11 10° 74° (ENE) 1,505 -1.1 -12.9°
Sets 22:17:17 0° 77° (ENE) 2,371 -0.2 -13.1°
Enters shadow 22:17:25 - 77° (ENE) 2,426 -0.1 -13.1°
